Regional Weather Roundup
Issued by NWS

Home | Current Version | Previous Version | Text Only | Print | Product List | Glossary On
Versions: 1 2 3 4 5 6 7 8 9 10 11 12 13 14 15 16 17 18 19 20 21 22 23 24 25 26 27 28 29 30 31 32 33 34 35 36 37 38 39 40 41 42 43 44 45 46 47 48 49 50
000
ASUS44 KLIX 290610
RWRLA
LOUISIANA WEATHER ROUNDUP
NATIONAL WEATHER SERVICE NEW ORLEANS LA
1200 AM CST THU JAN 29 2015

NOTE: "FAIR" INDICATES FEW OR NO CLOUDS BELOW 12,000 FEET WITH NO
      SIGNIFICANT WEATHER AND/OR OBSTRUCTIONS TO VISIBILITY.
      SKY/WX - SKY CONDITION AND SIGNIFICANT WEATHER.
      TMP - AIR TEMPERATURE.    DP   - DEWPOINT TEMPERATURE.
      RH  - RELATIVE HUMIDITY.  PRES - PRESSURE.
      HX  - HEAT INDEX.         WCI  - WIND CHILL INDEX.

*  THESE STATIONS ARE NOT NWS OR FAA STATIONS AND ARE NOT UNDER
   NWS QUALITY CONTROL.

LAZ040-048-061>063-065-066-069-290700-
SOUTHEAST LOUISIANA

CITY           SKY/WX    TMP DP  RH WIND       PRES   REMARKS
N.O. AUDUBON     N/A     49  47  91 MISG        N/A
6HR MIN TEMP:  49; 6HR MAX TEMP:  59;

N.O. INTL ARPT PTCLDY    49  44  83 CALM      30.23R
6HR MIN TEMP:  48; 6HR MAX TEMP:  59;

N.O. LAKEFRONT PTCLDY    53  45  74 CALM      30.23R
6HR MIN TEMP:  51; 6HR MAX TEMP:  59;

N.O. DOWNTOWN* NOT AVBL
SLIDELL        PTCLDY    43  39  86 CALM      30.22S
6HR MIN TEMP:  43; 6HR MAX TEMP:  52;

BATON ROUGE    CLEAR     46  41  82 CALM      30.22S
6HR MIN TEMP:  46; 6HR MAX TEMP:  61;

BOOTHVILLE     CLEAR     50  46  86 CALM      30.23S
6HR MIN TEMP:  49; 6HR MAX TEMP:  55;

BELLE CHASSE   PTCLDY    44  41  89 CALM      30.22R FOG
6HR MIN TEMP:  43; 6HR MAX TEMP:  56;

BOGALUSA*        N/A     43  39  86 CALM      30.25R
6HR MIN TEMP:  42; 6HR MAX TEMP:  61;

GALLIANO*      FOG       46  45  97 MISG      30.22S VSB<1/4
6HR MIN TEMP:  46; 6HR MAX TEMP:  57;

NEW ROADS*     FAIR      47  41  80 CALM      30.22R
6HR MIN TEMP:  47; 6HR MAX TEMP:  62;

GONZALES*      FAIR      49  46  89 CALM      30.22S
6HR MIN TEMP:  49; 6HR MAX TEMP:  64;

HAMMOND*       PTCLDY    43  39  87 CALM      30.25R
HOUMA*         CLEAR     48  48 100 CALM      30.22S
6HR MIN TEMP:  46; 6HR MAX TEMP:  56;

PORT FOURCHON* CLEAR     63  55  77 SE6       30.24S

$$

LAZ041-044-053-054-290700-
SOUTHWEST LOUISIANA

CITY           SKY/WX    TMP DP  RH WIND       PRES   REMARKS
LAKE CHARLES   FOG       50  50 100 SE6       30.19S VSB 3/4
6HR MIN TEMP:  48; 6HR MAX TEMP:  59;

LAFAYETTE      CLEAR     53  49  86 S3        30.21S
6HR MIN TEMP:  53; 6HR MAX TEMP:  61;

PATTERSON      CLEAR     54  48  82 SE7       30.22S
6HR MIN TEMP:  54; 6HR MAX TEMP:  61;

SALT POINT       N/A     52  51  97 E5        30.20R
6HR MIN TEMP:  52; 6HR MAX TEMP:  56;

NEW IBERIA     CLEAR     51  48  89 CALM      30.22R
6HR MIN TEMP:  49; 6HR MAX TEMP:  59;

CHENAULT AIRPK FOG       49  49 100 SE5       30.20S VSB 3/4
6HR MIN TEMP:  46; 6HR MAX TEMP:  58;


$$

LAZ027-028-290700-
CENTRAL LOUISIANA

CITY           SKY/WX    TMP DP  RH WIND       PRES   REMARKS
FORT POLK      CLEAR     54  51  90 S10       30.17F
6HR MIN TEMP:  54; 6HR MAX TEMP:  65;

ALEXANDRIA INT CLEAR     51  42  71 SE7       30.18R
6HR MIN TEMP:  50; 6HR MAX TEMP:  62;

ALEXANDRIA     CLEAR     50  43  77 CALM      30.20R
6HR MIN TEMP:  50; 6HR MAX TEMP:  67;


$$

LAZ001-002-290700-
NORTHWEST LOUISIANA

CITY           SKY/WX    TMP DP  RH WIND       PRES   REMARKS
SHREVEPORT     PTCLDY    58  45  62 S10       30.11R
6HR MIN TEMP:  57; 6HR MAX TEMP:  66;

BARKSDALE AFB  CLEAR     50  41  71 S10       30.12R
6HR MIN TEMP:  50; 6HR MAX TEMP:  66;

DTN SHREVEPORT CLEAR     58  42  55 S13       30.11R
6HR MIN TEMP:  57; 6HR MAX TEMP:  68;


$$

LAZ014-016-290700-
NORTHEAST LOUISIANA

CITY           SKY/WX    TMP DP  RH WIND       PRES   REMARKS
MONROE         CLEAR     56  42  59 S10       30.15S
6HR MIN TEMP:  54; 6HR MAX TEMP:  66;

TALLULAH       CLEAR     51  40  65 S8        30.18S
6HR MIN TEMP:  50; 6HR MAX TEMP:  62;


$$



USA.gov is the U.S. government's official web portal to all federal, state and local government web resources and services.